Simultaneous Nadir Overpasses (SNOs) Predictions

Prediction of SNOs between GOES-17 and METOP-B Satellite Orbit:

Table of predicted SNOs for the next 14.0 days since TLE Epoch: 10/7/2023
Index Date Time (GOES-17) GOES-17 Lat,Lon METOP-B Lat,Lon Distance(km) Time Diff (sec)
1 10/09/2023 04:23:11 -0.01,-104.69 0.11,-104.10 66.29 80
2 10/10/2023 16:42:01 -0.00,-104.71 0.90,-108.67 451.01 80
3 10/11/2023 16:24:02 -0.01,-104.71 -0.27,-103.68 118.41 80
4 10/13/2023 04:43:00 0.01,-104.69 -0.79,-108.27 407.55 80
5 10/14/2023 04:19:40 0.02,-104.69 0.33,-103.28 161.65 80
6 10/15/2023 16:38:30 -0.02,-104.72 0.67,-107.84 355.57 80
7 10/16/2023 16:20:29 -0.02,-104.72 -0.45,-102.84 213.94 80
8 10/18/2023 04:39:28 0.01,-104.70 -0.58,-107.44 311.77 80
9 10/19/2023 04:16:06 0.00,-104.69 0.49,-102.43 257.35 80
10 10/20/2023 16:34:56 0.00,-104.70 0.49,-107.00 260.74 80
